Time,TemperatureF,DewpointF,PressureIn,WindDirection,WindDirectionDegrees,WindSpeedMPH,WindSpeedGustMPH,Humidity,HourlyPrecipIn,Conditions,Clouds,dailyrainin,SolarRadiationWatts/m^2,SoftwareType,DateUTC
2013-10-09 00:01:00,54.1,50.9,29.15,NNE,23,0.0,-999.0,89,0.00,,,0.00,0,Wunderground v.1.15,2013-10-08 13:01:00,
2013-10-09 00:06:00,54.1,50.9,29.15,NNE,23,0.0,-999.0,89,0.00,,,0.00,0,Wunderground v.1.15,2013-10-08 13:06:00,
2013-10-09 00:11:00,54.1,50.9,29.15,NNE,23,0.0,-999.0,89,0.00,,,0.00,0,Wunderground v.1.15,2013-10-08 13:11:00,
2013-10-09 00:16:00,54.1,50.9,29.15,NNE,23,0.0,-999.0,89,0.00,,,0.00,0,Wunderground v.1.15,2013-10-08 13:16:00,
2013-10-09 00:21:00,54.1,50.9,29.15,NNE,23,0.0,-999.0,89,0.00,,,0.00,0,Wunderground v.1.15,2013-10-08 13:21:00,
2013-10-09 00:26:00,54.1,50.9,29.15,NNE,23,0.0,-999.0,89,0.00,,,0.00,0,Wunderground v.1.15,2013-10-08 13:26:00,
2013-10-09 00:31:00,54.1,50.9,29.15,NNE,23,0.0,-999.0,89,0.00,,,0.00,0,Wunderground v.1.15,2013-10-08 13:31:00,
2013-10-09 00:36:00,54.1,50.9,29.15,NNE,23,0.0,-999.0,89,0.00,,,0.00,0,Wunderground v.1.15,2013-10-08 13:36:00,
2013-10-09 00:41:00,54.1,50.9,29.15,NNE,23,0.0,-999.0,89,0.00,,,0.00,0,Wunderground v.1.15,2013-10-08 13:41:00,
2013-10-09 00:46:00,54.1,50.9,29.13,NNE,23,0.0,-999.0,89,0.00,,,0.00,0,Wunderground v.1.15,2013-10-08 13:46:00,
2013-10-09 00:51:00,54.1,50.9,29.13,NNE,23,0.0,-999.0,89,0.00,,,0.00,0,Wunderground v.1.15,2013-10-08 13:51:00,
2013-10-09 00:56:00,54.1,50.9,29.13,NNE,23,0.0,-999.0,89,0.00,,,0.00,0,Wunderground v.1.15,2013-10-08 13:56:00,
2013-10-09 01:01:00,54.1,50.9,29.13,NNE,23,0.0,-999.0,89,0.00,,,0.00,0,Wunderground v.1.15,2013-10-08 14:01:00,
2013-10-09 01:06:00,54.1,50.9,29.13,NNE,23,0.0,-999.0,89,0.00,,,0.00,0,Wunderground v.1.15,2013-10-08 14:06:00,
2013-10-09 01:11:00,54.1,50.9,29.13,NNE,23,0.0,-999.0,89,0.00,,,0.00,0,Wunderground v.1.15,2013-10-08 14:11:00,
2013-10-09 01:16:00,54.0,50.8,29.13,NNE,23,0.0,-999.0,89,0.00,,,0.00,0,Wunderground v.1.15,2013-10-08 14:16:00,
2013-10-09 01:21:00,54.0,50.8,29.13,NNE,23,0.0,-999.0,89,0.00,,,0.00,0,Wunderground v.1.15,2013-10-08 14:21:00,
2013-10-09 01:26:00,54.0,50.8,29.13,NNE,23,0.0,-999.0,89,0.00,,,0.00,0,Wunderground v.1.15,2013-10-08 14:26:00,
2013-10-09 01:31:00,54.0,50.8,29.13,NNE,23,0.0,-999.0,89,0.00,,,0.00,0,Wunderground v.1.15,2013-10-08 14:31:00,
2013-10-09 01:36:00,54.0,50.8,29.13,NNE,23,0.0,-999.0,89,0.00,,,0.00,0,Wunderground v.1.15,2013-10-08 14:36:00,
2013-10-09 01:41:00,54.0,50.8,29.13,NNE,23,0.0,-999.0,89,0.00,,,0.00,0,Wunderground v.1.15,2013-10-08 14:41:00,
2013-10-09 01:46:00,54.1,50.9,29.12,NNE,23,0.0,-999.0,89,0.00,,,0.00,0,Wunderground v.1.15,2013-10-08 14:46:00,
2013-10-09 01:51:00,54.1,50.9,29.12,NNE,23,0.0,-999.0,89,0.00,,,0.00,0,Wunderground v.1.15,2013-10-08 14:51:00,
2013-10-09 01:56:00,54.1,50.9,29.12,NNE,23,0.0,-999.0,89,0.00,,,0.00,0,Wunderground v.1.15,2013-10-08 14:56:00,
2013-10-09 02:01:00,54.1,50.9,29.12,NNE,23,0.0,-999.0,89,0.00,,,0.00,0,Wunderground v.1.15,2013-10-08 15:01:00,
2013-10-09 02:06:00,54.1,50.9,29.12,NNE,23,0.0,-999.0,89,0.00,,,0.00,0,Wunderground v.1.15,2013-10-08 15:06:00,
2013-10-09 02:11:00,54.1,50.9,29.12,NNE,23,0.0,-999.0,89,0.00,,,0.00,0,Wunderground v.1.15,2013-10-08 15:11:00,
2013-10-09 02:16:00,53.9,50.7,29.12,NNE,23,0.0,-999.0,89,0.00,,,0.00,0,Wunderground v.1.15,2013-10-08 15:16:00,
2013-10-09 02:21:00,53.9,50.7,29.12,NNE,23,0.0,-999.0,89,0.00,,,0.00,0,Wunderground v.1.15,2013-10-08 15:21:00,
2013-10-09 02:26:00,53.9,50.7,29.12,NNE,23,0.0,-999.0,89,0.00,,,0.00,0,Wunderground v.1.15,2013-10-08 15:26:00,
2013-10-09 02:31:00,53.9,50.7,29.12,NNE,23,0.0,-999.0,89,0.00,,,0.00,0,Wunderground v.1.15,2013-10-08 15:31:00,
2013-10-09 02:36:00,53.9,50.7,29.12,NNE,23,0.0,-999.0,89,0.00,,,0.00,0,Wunderground v.1.15,2013-10-08 15:36:00,
2013-10-09 02:41:00,53.9,50.7,29.12,NNE,23,0.0,-999.0,89,0.00,,,0.00,0,Wunderground v.1.15,2013-10-08 15:41:00,
2013-10-09 02:46:00,53.8,50.6,29.12,NNE,23,0.0,-999.0,89,0.00,,,0.00,0,Wunderground v.1.15,2013-10-08 15:46:00,
2013-10-09 02:51:00,53.8,50.6,29.12,NNE,23,0.0,-999.0,89,0.00,,,0.00,0,Wunderground v.1.15,2013-10-08 15:51:00,
2013-10-09 02:56:00,53.8,50.6,29.12,NNE,23,0.0,-999.0,89,0.00,,,0.00,0,Wunderground v.1.15,2013-10-08 15:56:00,
2013-10-09 03:01:00,53.8,50.6,29.12,NNE,23,0.0,-999.0,89,0.00,,,0.00,0,Wunderground v.1.15,2013-10-08 16:01:00,
2013-10-09 03:06:00,53.8,50.6,29.12,NNE,23,0.0,-999.0,89,0.00,,,0.00,0,Wunderground v.1.15,2013-10-08 16:06:00,
2013-10-09 03:11:00,53.8,50.6,29.12,NNE,23,0.0,-999.0,89,0.00,,,0.00,0,Wunderground v.1.15,2013-10-08 16:11:00,
2013-10-09 03:16:00,53.9,50.7,29.12,NNE,23,0.0,-999.0,89,0.00,,,0.00,0,Wunderground v.1.15,2013-10-08 16:16:00,
2013-10-09 03:21:00,53.9,50.7,29.12,NNE,23,0.0,-999.0,89,0.00,,,0.00,0,Wunderground v.1.15,2013-10-08 16:21:00,
2013-10-09 03:26:00,53.9,50.7,29.12,NNE,23,0.0,-999.0,89,0.00,,,0.00,0,Wunderground v.1.15,2013-10-08 16:26:00,
2013-10-09 03:31:00,53.9,50.7,29.12,NNE,23,0.0,-999.0,89,0.00,,,0.00,0,Wunderground v.1.15,2013-10-08 16:31:00,
2013-10-09 03:36:00,53.9,50.7,29.12,NNE,23,0.0,-999.0,89,0.00,,,0.00,0,Wunderground v.1.15,2013-10-08 16:36:00,
2013-10-09 03:41:00,53.9,50.7,29.12,NNE,23,0.0,-999.0,89,0.00,,,0.00,0,Wunderground v.1.15,2013-10-08 16:41:00,
2013-10-09 03:46:00,53.4,50.5,29.12,NNE,23,1.0,-999.0,90,0.00,,,0.00,0,Wunderground v.1.15,2013-10-08 16:46:00,
2013-10-09 03:51:00,53.4,50.5,29.12,NNE,23,1.0,-999.0,90,0.00,,,0.00,0,Wunderground v.1.15,2013-10-08 16:51:00,
2013-10-09 03:56:00,53.4,50.5,29.12,NNE,23,1.0,-999.0,90,0.00,,,0.00,0,Wunderground v.1.15,2013-10-08 16:56:00,
2013-10-09 04:01:00,53.4,50.5,29.12,NNE,23,1.0,-999.0,90,0.00,,,0.00,0,Wunderground v.1.15,2013-10-08 17:01:00,
2013-10-09 04:06:00,53.4,50.5,29.12,NNE,23,1.0,-999.0,90,0.00,,,0.00,0,Wunderground v.1.15,2013-10-08 17:06:00,
2013-10-09 04:11:00,53.4,50.5,29.12,NNE,23,1.0,-999.0,90,0.00,,,0.00,0,Wunderground v.1.15,2013-10-08 17:11:00,
2013-10-09 04:16:00,53.0,50.1,29.13,NNE,23,1.0,-999.0,90,0.00,,,0.00,0,Wunderground v.1.15,2013-10-08 17:16:00,
2013-10-09 04:21:00,53.0,50.1,29.13,NNE,23,1.0,-999.0,90,0.00,,,0.00,0,Wunderground v.1.15,2013-10-08 17:21:00,
2013-10-09 04:26:00,53.0,50.1,29.13,NNE,23,1.0,-999.0,90,0.00,,,0.00,0,Wunderground v.1.15,2013-10-08 17:26:00,
2013-10-09 04:31:00,53.0,50.1,29.13,NNE,23,1.0,-999.0,90,0.00,,,0.00,0,Wunderground v.1.15,2013-10-08 17:31:00,
2013-10-09 04:36:00,53.0,50.1,29.13,NNE,23,1.0,-999.0,90,0.00,,,0.00,0,Wunderground v.1.15,2013-10-08 17:36:00,
2013-10-09 04:41:00,53.0,50.1,29.13,NNE,23,1.0,-999.0,90,0.00,,,0.00,0,Wunderground v.1.15,2013-10-08 17:41:00,
2013-10-09 04:46:00,52.8,49.9,29.14,NNE,23,2.0,-999.0,90,0.00,,,0.00,0,Wunderground v.1.15,2013-10-08 17:46:00,
2013-10-09 04:51:00,52.8,49.9,29.14,NNE,23,2.0,-999.0,90,0.00,,,0.00,0,Wunderground v.1.15,2013-10-08 17:51:00,
2013-10-09 04:56:00,52.8,49.9,29.14,NNE,23,2.0,-999.0,90,0.00,,,0.00,0,Wunderground v.1.15,2013-10-08 17:56:00,
2013-10-09 05:01:00,52.8,49.9,29.14,NNE,23,2.0,-999.0,90,0.00,,,0.00,0,Wunderground v.1.15,2013-10-08 18:01:00,
2013-10-09 05:06:00,52.8,49.9,29.14,NNE,23,2.0,-999.0,90,0.00,,,0.00,0,Wunderground v.1.15,2013-10-08 18:06:00,
2013-10-09 05:11:00,52.8,49.9,29.14,NNE,23,2.0,-999.0,90,0.00,,,0.00,0,Wunderground v.1.15,2013-10-08 18:11:00,
2013-10-09 05:16:00,52.4,49.6,29.13,NNE,23,1.0,-999.0,90,0.00,,,0.00,2,Wunderground v.1.15,2013-10-08 18:16:00,
2013-10-09 05:21:00,52.4,49.6,29.13,NNE,23,1.0,-999.0,90,0.00,,,0.00,2,Wunderground v.1.15,2013-10-08 18:21:00,
2013-10-09 05:26:00,52.4,49.6,29.13,NNE,23,1.0,-999.0,90,0.00,,,0.00,2,Wunderground v.1.15,2013-10-08 18:26:00,
2013-10-09 05:31:00,52.4,49.6,29.13,NNE,23,1.0,-999.0,90,0.00,,,0.00,2,Wunderground v.1.15,2013-10-08 18:31:00,
2013-10-09 05:36:00,52.4,49.6,29.13,NNE,23,1.0,-999.0,90,0.00,,,0.00,2,Wunderground v.1.15,2013-10-08 18:36:00,
2013-10-09 05:41:00,52.4,49.6,29.13,NNE,23,1.0,-999.0,90,0.00,,,0.00,2,Wunderground v.1.15,2013-10-08 18:41:00,
2013-10-09 05:46:00,52.1,49.3,29.14,NNE,23,1.0,-999.0,90,0.00,,,0.00,14,Wunderground v.1.15,2013-10-08 18:46:00,
2013-10-09 05:51:00,52.1,49.3,29.14,NNE,23,1.0,-999.0,90,0.00,,,0.00,14,Wunderground v.1.15,2013-10-08 18:51:00,
2013-10-09 05:56:00,52.1,49.3,29.14,NNE,23,1.0,-999.0,90,0.00,,,0.00,14,Wunderground v.1.15,2013-10-08 18:56:00,
2013-10-09 06:01:00,52.1,49.3,29.14,NNE,23,1.0,-999.0,90,0.00,,,0.00,14,Wunderground v.1.15,2013-10-08 19:01:00,
2013-10-09 06:06:00,52.1,49.3,29.14,NNE,23,1.0,-999.0,90,0.00,,,0.00,14,Wunderground v.1.15,2013-10-08 19:06:00,
2013-10-09 06:11:00,52.1,49.3,29.14,NNE,23,1.0,-999.0,90,0.00,,,0.00,14,Wunderground v.1.15,2013-10-08 19:11:00,
2013-10-09 06:16:00,52.2,49.4,29.15,NNW,338,1.0,-999.0,90,0.00,,,0.00,24,Wunderground v.1.15,2013-10-08 19:16:00,
2013-10-09 06:21:00,52.2,49.4,29.15,NNW,338,1.0,-999.0,90,0.00,,,0.00,24,Wunderground v.1.15,2013-10-08 19:21:00,
2013-10-09 06:26:00,52.2,49.4,29.15,NNW,338,1.0,-999.0,90,0.00,,,0.00,24,Wunderground v.1.15,2013-10-08 19:26:00,
2013-10-09 06:31:00,52.2,49.4,29.15,NNW,338,1.0,-999.0,90,0.00,,,0.00,24,Wunderground v.1.15,2013-10-08 19:31:00,
2013-10-09 06:36:00,52.2,49.4,29.15,NNW,338,1.0,-999.0,90,0.00,,,0.00,24,Wunderground v.1.15,2013-10-08 19:36:00,
2013-10-09 06:41:00,52.2,49.4,29.15,NNW,338,1.0,-999.0,90,0.00,,,0.00,24,Wunderground v.1.15,2013-10-08 19:41:00,
2013-10-09 06:46:00,53.1,50.2,29.15,NW,315,1.0,-999.0,90,0.00,,,0.00,113,Wunderground v.1.15,2013-10-08 19:46:00,
2013-10-09 06:51:00,53.1,50.2,29.15,NW,315,1.0,-999.0,90,0.00,,,0.00,113,Wunderground v.1.15,2013-10-08 19:51:00,
2013-10-09 06:56:00,53.1,50.2,29.15,NW,315,1.0,-999.0,90,0.00,,,0.00,113,Wunderground v.1.15,2013-10-08 19:56:00,
2013-10-09 07:01:00,53.1,50.2,29.15,NW,315,1.0,-999.0,90,0.00,,,0.00,113,Wunderground v.1.15,2013-10-08 20:01:00,
2013-10-09 07:06:00,53.1,50.2,29.15,NW,315,1.0,-999.0,90,0.00,,,0.00,113,Wunderground v.1.15,2013-10-08 20:06:00,
2013-10-09 07:11:00,53.1,50.2,29.15,NW,315,1.0,-999.0,90,0.00,,,0.00,113,Wunderground v.1.15,2013-10-08 20:11:00,
2013-10-09 07:16:00,55.2,50.8,29.16,NW,315,3.0,-999.0,85,0.00,,,0.00,244,Wunderground v.1.15,2013-10-08 20:16:00,
2013-10-09 07:21:00,55.2,50.8,29.16,NW,315,3.0,-999.0,85,0.00,,,0.00,244,Wunderground v.1.15,2013-10-08 20:21:00,
2013-10-09 07:25:00,52.4,49.8,29.15,North,360,1.0,5.0,91,0.00,,,0.00,25,Wunderground v.1.15,2013-10-08 20:25:00,
2013-10-09 07:26:00,55.2,50.8,29.16,NW,315,3.0,-999.0,85,0.00,,,0.00,244,Wunderground v.1.15,2013-10-08 20:26:00,
2013-10-09 07:31:00,55.2,50.8,29.16,NW,315,3.0,-999.0,85,0.00,,,0.00,244,Wunderground v.1.15,2013-10-08 20:31:00,
2013-10-09 07:35:00,52.5,49.7,29.15,NNW,327,1.0,7.0,90,0.00,,,0.00,33,Wunderground v.1.15,2013-10-08 20:35:00,
2013-10-09 07:36:00,55.2,50.8,29.16,NW,315,3.0,-999.0,85,0.00,,,0.00,244,Wunderground v.1.15,2013-10-08 20:36:00,
2013-10-09 07:40:00,52.5,49.7,29.15,NW,311,1.0,7.0,90,0.00,,,0.00,47,Wunderground v.1.15,2013-10-08 20:40:00,
2013-10-09 07:41:00,55.2,50.8,29.16,NW,315,3.0,-999.0,85,0.00,,,0.00,244,Wunderground v.1.15,2013-10-08 20:41:00,
2013-10-09 07:45:00,52.9,50.3,29.16,NW,325,1.0,7.0,91,0.00,,,0.00,243,Wunderground v.1.15,2013-10-08 20:45:00,
2013-10-09 07:46:00,59.5,51.2,29.15,NNW,338,4.0,-999.0,74,0.00,,,0.00,483,Wunderground v.1.15,2013-10-08 20:46:00,
2013-10-09 07:50:00,53.3,50.7,29.15,NNW,340,2.0,7.0,91,0.00,,,0.00,244,Wunderground v.1.15,2013-10-08 20:50:00,
2013-10-09 07:51:00,59.5,51.2,29.15,NNW,338,4.0,-999.0,74,0.00,,,0.00,483,Wunderground v.1.15,2013-10-08 20:51:00,
2013-10-09 07:56:00,59.5,51.2,29.15,NNW,338,4.0,-999.0,74,0.00,,,0.00,483,Wunderground v.1.15,2013-10-08 20:56:00,
2013-10-09 08:00:00,53.9,51.0,29.15,NNW,344,1.0,7.0,90,0.00,,,0.00,44,Wunderground v.1.15,2013-10-08 21:00:00,
2013-10-09 08:01:00,59.5,51.2,29.15,NNW,338,4.0,-999.0,74,0.00,,,0.00,483,Wunderground v.1.15,2013-10-08 21:01:00,
2013-10-09 08:05:00,54.3,51.1,29.15,WNW,289,1.0,8.0,89,0.00,,,0.00,39,Wunderground v.1.15,2013-10-08 21:05:00,
2013-10-09 08:06:00,59.5,51.2,29.15,NNW,338,4.0,-999.0,74,0.00,,,0.00,483,Wunderground v.1.15,2013-10-08 21:06:00,
2013-10-09 08:10:00,54.5,51.3,29.15,NW,306,2.0,8.0,89,0.00,,,0.00,134,Wunderground v.1.15,2013-10-08 21:10:00,
2013-10-09 08:11:00,59.5,51.2,29.15,NNW,338,4.0,-999.0,74,0.00,,,0.00,483,Wunderground v.1.15,2013-10-08 21:11:00,
2013-10-09 08:15:00,54.7,51.2,29.15,North,349,3.0,8.0,88,0.00,,,0.00,60,Wunderground v.1.15,2013-10-08 21:15:00,
2013-10-09 08:16:00,62.7,51.2,29.15,NW,315,5.0,-999.0,66,0.00,,,0.00,587,Wunderground v.1.15,2013-10-08 21:16:00,
2013-10-09 08:20:00,55.2,51.7,29.16,NNW,333,3.0,3.0,88,0.00,,,0.00,366,Wunderground v.1.15,2013-10-08 21:20:00,
2013-10-09 08:21:00,62.7,51.2,29.15,NW,315,5.0,-999.0,66,0.00,,,0.00,587,Wunderground v.1.15,2013-10-08 21:21:00,
2013-10-09 08:26:00,62.7,51.2,29.15,NW,315,5.0,-999.0,66,0.00,,,0.00,587,Wunderground v.1.15,2013-10-08 21:26:00,
2013-10-09 08:30:00,56.7,52.6,29.16,NW,311,3.0,8.0,86,0.00,,,0.00,404,Wunderground v.1.15,2013-10-08 21:30:00,
2013-10-09 08:31:00,62.7,51.2,29.15,NW,315,5.0,-999.0,66,0.00,,,0.00,587,Wunderground v.1.15,2013-10-08 21:31:00,
2013-10-09 08:36:00,62.7,51.2,29.15,NW,315,5.0,-999.0,66,0.00,,,0.00,587,Wunderground v.1.15,2013-10-08 21:36:00,
2013-10-09 08:40:00,58.3,53.2,29.15,NW,322,3.0,8.0,83,0.00,,,0.00,452,Wunderground v.1.15,2013-10-08 21:40:00,
2013-10-09 08:41:00,62.7,51.2,29.15,NW,315,5.0,-999.0,66,0.00,,,0.00,587,Wunderground v.1.15,2013-10-08 21:41:00,
2013-10-09 08:45:00,59.3,53.5,29.15,NE,42,3.0,8.0,81,0.00,,,0.00,482,Wunderground v.1.15,2013-10-08 21:45:00,
2013-10-09 08:46:00,65.5,52.1,29.14,NW,315,4.0,-999.0,62,0.00,,,0.00,679,Wunderground v.1.15,2013-10-08 21:46:00,
2013-10-09 08:50:00,60.1,53.6,29.15,North,355,3.0,8.0,79,0.00,,,0.00,501,Wunderground v.1.15,2013-10-08 21:50:00,
2013-10-09 08:51:00,65.5,52.1,29.14,NW,315,4.0,-999.0,62,0.00,,,0.00,679,Wunderground v.1.15,2013-10-08 21:51:00,
2013-10-09 08:55:00,60.9,53.6,29.15,NW,307,4.0,8.0,77,0.00,,,0.00,520,Wunderground v.1.15,2013-10-08 21:55:00,
2013-10-09 08:56:00,65.5,52.1,29.14,NW,315,4.0,-999.0,62,0.00,,,0.00,679,Wunderground v.1.15,2013-10-08 21:56:00,
2013-10-09 09:00:00,61.6,53.6,29.15,NNW,343,4.0,8.0,75,0.00,,,0.00,536,Wunderground v.1.15,2013-10-08 22:00:00,
2013-10-09 09:01:00,65.5,52.1,29.14,NW,315,4.0,-999.0,62,0.00,,,0.00,679,Wunderground v.1.15,2013-10-08 22:01:00,
2013-10-09 09:06:00,65.5,52.1,29.14,NW,315,4.0,-999.0,62,0.00,,,0.00,679,Wunderground v.1.15,2013-10-08 22:06:00,
2013-10-09 09:10:00,61.9,52.8,29.16,WNW,302,5.0,5.0,72,0.00,,,0.00,566,Wunderground v.1.15,2013-10-08 22:10:00,
2013-10-09 09:11:00,65.5,52.1,29.14,NW,315,4.0,-999.0,62,0.00,,,0.00,679,Wunderground v.1.15,2013-10-08 22:11:00,
2013-10-09 09:15:00,62.5,53.3,29.16,NNW,335,5.0,11.0,72,0.00,,,0.00,582,Wunderground v.1.15,2013-10-08 22:15:00,
2013-10-09 09:16:00,68.1,50.3,29.13,NW,315,5.0,-999.0,53,0.00,,,0.00,758,Wunderground v.1.15,2013-10-08 22:16:00,
2013-10-09 09:20:00,62.9,53.0,29.15,WNW,291,5.0,5.0,70,0.00,,,0.00,598,Wunderground v.1.15,2013-10-08 22:20:00,
2013-10-09 09:21:00,68.1,50.3,29.13,NW,315,5.0,-999.0,53,0.00,,,0.00,758,Wunderground v.1.15,2013-10-08 22:21:00,
2013-10-09 09:26:00,68.1,50.3,29.13,NW,315,5.0,-999.0,53,0.00,,,0.00,758,Wunderground v.1.15,2013-10-08 22:26:00,
2013-10-09 09:30:00,64.1,52.9,29.15,NNW,341,4.0,11.0,67,0.00,,,0.00,628,Wunderground v.1.15,2013-10-08 22:30:00,
2013-10-09 09:31:00,68.1,50.3,29.13,NW,315,5.0,-999.0,53,0.00,,,0.00,758,Wunderground v.1.15,2013-10-08 22:31:00,
2013-10-09 09:35:00,64.1,52.9,29.15,North,5,6.0,14.0,67,0.00,,,0.00,645,Wunderground v.1.15,2013-10-08 22:35:00,
2013-10-09 09:36:00,68.1,50.3,29.13,NW,315,5.0,-999.0,53,0.00,,,0.00,758,Wunderground v.1.15,2013-10-08 22:36:00,
2013-10-09 09:41:00,68.1,50.3,29.13,NW,315,5.0,-999.0,53,0.00,,,0.00,758,Wunderground v.1.15,2013-10-08 22:41:00,
2013-10-09 09:45:00,65.6,53.9,29.15,ENE,71,4.0,14.0,66,0.00,,,0.00,671,Wunderground v.1.15,2013-10-08 22:45:00,
2013-10-09 09:46:00,70.4,51.4,29.12,NW,315,6.0,-999.0,51,0.00,,,0.00,821,Wunderground v.1.15,2013-10-08 22:46:00,
2013-10-09 09:50:00,66.6,54.0,29.15,NNE,12,3.0,14.0,64,0.00,,,0.00,687,Wunderground v.1.15,2013-10-08 22:50:00,
2013-10-09 09:51:00,70.4,51.4,29.12,NW,315,6.0,-999.0,51,0.00,,,0.00,821,Wunderground v.1.15,2013-10-08 22:51:00,
2013-10-09 09:55:00,66.5,52.2,29.15,WNW,294,4.0,14.0,60,0.00,,,0.00,703,Wunderground v.1.15,2013-10-08 22:55:00,
2013-10-09 09:56:00,70.4,51.4,29.12,NW,315,6.0,-999.0,51,0.00,,,0.00,821,Wunderground v.1.15,2013-10-08 22:56:00,
2013-10-09 10:01:00,70.4,51.4,29.12,NW,315,6.0,-999.0,51,0.00,,,0.00,821,Wunderground v.1.15,2013-10-08 23:01:00,
2013-10-09 10:05:00,66.7,52.8,29.14,NW,312,5.0,13.0,61,0.00,,,0.00,728,Wunderground v.1.15,2013-10-08 23:05:00,
2013-10-09 10:06:00,70.4,51.4,29.12,NW,315,6.0,-999.0,51,0.00,,,0.00,821,Wunderground v.1.15,2013-10-08 23:06:00,
2013-10-09 10:10:00,67.6,52.8,29.14,NW,323,4.0,4.0,59,0.00,,,0.00,742,Wunderground v.1.15,2013-10-08 23:10:00,
2013-10-09 10:11:00,70.4,51.4,29.12,NW,315,6.0,-999.0,51,0.00,,,0.00,821,Wunderground v.1.15,2013-10-08 23:11:00,
2013-10-09 10:15:00,67.8,52.5,29.14,NW,315,4.0,13.0,58,0.00,,,0.00,756,Wunderground v.1.15,2013-10-08 23:15:00,
2013-10-09 10:16:00,71.4,49.5,29.11,WNW,293,6.0,-999.0,46,0.00,,,0.00,869,Wunderground v.1.15,2013-10-08 23:16:00,
2013-10-09 10:20:00,68.5,52.2,29.14,North,5,5.0,13.0,56,0.00,,,0.00,763,Wunderground v.1.15,2013-10-08 23:20:00,
2013-10-09 10:21:00,71.4,49.5,29.11,WNW,293,6.0,-999.0,46,0.00,,,0.00,869,Wunderground v.1.15,2013-10-08 23:21:00,
2013-10-09 10:25:00,69.0,52.2,29.14,NNW,332,5.0,13.0,55,0.00,,,0.00,777,Wunderground v.1.15,2013-10-08 23:25:00,
2013-10-09 10:26:00,71.4,49.5,29.11,WNW,293,6.0,-999.0,46,0.00,,,0.00,869,Wunderground v.1.15,2013-10-08 23:26:00,
2013-10-09 10:31:00,71.4,49.5,29.11,WNW,293,6.0,-999.0,46,0.00,,,0.00,869,Wunderground v.1.15,2013-10-08 23:31:00,
2013-10-09 10:35:00,70.4,51.9,29.13,NW,319,5.0,13.0,52,0.00,,,0.00,802,Wunderground v.1.15,2013-10-08 23:35:00,
2013-10-09 10:36:00,71.4,49.5,29.11,WNW,293,6.0,-999.0,46,0.00,,,0.00,869,Wunderground v.1.15,2013-10-08 23:36:00,
2013-10-09 10:41:00,71.4,49.5,29.11,WNW,293,6.0,-999.0,46,0.00,,,0.00,869,Wunderground v.1.15,2013-10-08 23:41:00,
2013-10-09 10:45:00,71.0,52.0,29.13,WNW,297,5.0,10.0,51,0.00,,,0.00,819,Wunderground v.1.15,2013-10-08 23:45:00,
2013-10-09 10:46:00,73.8,48.0,29.09,WNW,293,6.0,-999.0,40,0.00,,,0.00,904,Wunderground v.1.15,2013-10-08 23:46:00,
2013-10-09 10:50:00,70.1,51.1,29.13,West,280,6.0,13.0,51,0.00,,,0.00,828,Wunderground v.1.15,2013-10-08 23:50:00,
2013-10-09 10:51:00,73.8,48.0,29.09,WNW,293,6.0,-999.0,40,0.00,,,0.00,904,Wunderground v.1.15,2013-10-08 23:51:00,
2013-10-09 10:55:00,70.3,51.3,29.12,WNW,291,6.0,13.0,51,0.00,,,0.00,833,Wunderground v.1.15,2013-10-08 23:55:00,
2013-10-09 10:56:00,73.8,48.0,29.09,WNW,293,6.0,-999.0,40,0.00,,,0.00,904,Wunderground v.1.15,2013-10-08 23:56:00,
2013-10-09 11:01:00,73.8,48.0,29.09,WNW,293,6.0,-999.0,40,0.00,,,0.00,904,Wunderground v.1.15,2013-10-09 00:01:00,
2013-10-09 11:05:00,70.0,50.5,29.12,WNW,294,8.0,14.0,50,0.00,,,0.00,851,Wunderground v.1.15,2013-10-09 00:05:00,
2013-10-09 11:06:00,73.8,48.0,29.09,WNW,293,6.0,-999.0,40,0.00,,,0.00,904,Wunderground v.1.15,2013-10-09 00:06:00,
2013-10-09 11:10:00,70.8,50.7,29.12,WNW,292,7.0,14.0,49,0.00,,,0.00,858,Wunderground v.1.15,2013-10-09 00:10:00,
2013-10-09 11:11:00,73.8,48.0,29.09,WNW,293,6.0,-999.0,40,0.00,,,0.00,904,Wunderground v.1.15,2013-10-09 00:11:00,
2013-10-09 11:15:00,71.3,51.1,29.12,WNW,297,7.0,14.0,49,0.00,,,0.00,868,Wunderground v.1.15,2013-10-09 00:15:00,
2013-10-09 11:16:00,76.7,47.7,29.08,NW,315,6.0,-999.0,36,0.00,,,0.00,928,Wunderground v.1.15,2013-10-09 00:16:00,
2013-10-09 11:20:00,72.1,50.8,29.11,NW,325,6.0,6.0,47,0.00,,,0.00,872,Wunderground v.1.15,2013-10-09 00:20:00,
2013-10-09 11:21:00,76.7,47.7,29.08,NW,315,6.0,-999.0,36,0.00,,,0.00,928,Wunderground v.1.15,2013-10-09 00:21:00,
2013-10-09 11:26:00,76.7,47.7,29.08,NW,315,6.0,-999.0,36,0.00,,,0.00,928,Wunderground v.1.15,2013-10-09 00:26:00,
2013-10-09 11:30:00,72.4,51.0,29.11,North,9,6.0,6.0,47,0.00,,,0.00,889,Wunderground v.1.15,2013-10-09 00:30:00,
2013-10-09 11:31:00,76.7,47.7,29.08,NW,315,6.0,-999.0,36,0.00,,,0.00,928,Wunderground v.1.15,2013-10-09 00:31:00,
2013-10-09 11:35:00,73.1,51.1,29.11,WNW,302,6.0,15.0,46,0.00,,,0.00,889,Wunderground v.1.15,2013-10-09 00:35:00,
2013-10-09 11:36:00,76.7,47.7,29.08,NW,315,6.0,-999.0,36,0.00,,,0.00,928,Wunderground v.1.15,2013-10-09 00:36:00,
2013-10-09 11:41:00,76.7,47.7,29.08,NW,315,6.0,-999.0,36,0.00,,,0.00,928,Wunderground v.1.15,2013-10-09 00:41:00,
2013-10-09 11:45:00,72.8,50.8,29.10,NNW,338,7.0,15.0,46,0.00,,,0.00,900,Wunderground v.1.15,2013-10-09 00:45:00,
2013-10-09 11:46:00,77.8,46.4,29.06,NW,315,6.0,-999.0,33,0.00,,,0.00,931,Wunderground v.1.15,2013-10-09 00:46:00,
2013-10-09 11:50:00,73.8,50.5,29.10,WNW,290,6.0,6.0,44,0.00,,,0.00,905,Wunderground v.1.15,2013-10-09 00:50:00,
2013-10-09 11:51:00,77.8,46.4,29.06,NW,315,6.0,-999.0,33,0.00,,,0.00,931,Wunderground v.1.15,2013-10-09 00:51:00,
2013-10-09 11:55:00,74.8,50.8,29.10,NNE,21,5.0,15.0,43,0.00,,,0.00,912,Wunderground v.1.15,2013-10-09 00:55:00,
2013-10-09 11:56:00,77.8,46.4,29.06,NW,315,6.0,-999.0,33,0.00,,,0.00,931,Wunderground v.1.15,2013-10-09 00:56:00,
2013-10-09 12:01:00,77.8,46.4,29.06,NW,315,6.0,-999.0,33,0.00,,,0.00,931,Wunderground v.1.15,2013-10-09 01:01:00,
2013-10-09 12:05:00,75.6,50.2,29.09,NNW,334,5.0,16.0,41,0.00,,,0.00,925,Wunderground v.1.15,2013-10-09 01:05:00,
2013-10-09 12:06:00,77.8,46.4,29.06,NW,315,6.0,-999.0,33,0.00,,,0.00,931,Wunderground v.1.15,2013-10-09 01:06:00,
2013-10-09 12:10:00,76.3,49.5,29.09,WNW,284,6.0,16.0,39,0.00,,,0.00,926,Wunderground v.1.15,2013-10-09 01:10:00,
2013-10-09 12:11:00,77.8,46.4,29.06,NW,315,6.0,-999.0,33,0.00,,,0.00,931,Wunderground v.1.15,2013-10-09 01:11:00,
2013-10-09 12:16:00,79.9,44.8,29.05,NW,315,6.0,-999.0,29,0.00,,,0.00,918,Wunderground v.1.15,2013-10-09 01:16:00,
2013-10-09 12:20:00,77.2,48.9,29.08,North,5,5.0,5.0,37,0.00,,,0.00,932,Wunderground v.1.15,2013-10-09 01:20:00,
2013-10-09 12:21:00,79.9,44.8,29.05,NW,315,6.0,-999.0,29,0.00,,,0.00,918,Wunderground v.1.15,2013-10-09 01:21:00,
2013-10-09 12:26:00,79.9,44.8,29.05,NW,315,6.0,-999.0,29,0.00,,,0.00,918,Wunderground v.1.15,2013-10-09 01:26:00,
2013-10-09 12:30:00,77.1,47.3,29.08,West,269,7.0,16.0,35,0.00,,,0.00,932,Wunderground v.1.15,2013-10-09 01:30:00,
2013-10-09 12:31:00,79.9,44.8,29.05,NW,315,6.0,-999.0,29,0.00,,,0.00,918,Wunderground v.1.15,2013-10-09 01:31:00,
2013-10-09 12:35:00,77.0,48.0,29.08,NW,323,8.0,16.0,36,0.00,,,0.00,932,Wunderground v.1.15,2013-10-09 01:35:00,
2013-10-09 12:36:00,79.9,44.8,29.05,NW,315,6.0,-999.0,29,0.00,,,0.00,918,Wunderground v.1.15,2013-10-09 01:36:00,
2013-10-09 12:40:00,77.2,47.4,29.07,West,279,7.0,14.0,35,0.00,,,0.00,933,Wunderground v.1.15,2013-10-09 01:40:00,
2013-10-09 12:41:00,79.9,44.8,29.05,NW,315,6.0,-999.0,29,0.00,,,0.00,918,Wunderground v.1.15,2013-10-09 01:41:00,
2013-10-09 12:46:00,81.6,42.4,29.03,NW,315,6.0,-999.0,25,0.00,,,0.00,892,Wunderground v.1.15,2013-10-09 01:46:00,
2013-10-09 12:50:00,78.1,47.4,29.07,North,355,7.0,14.0,34,0.00,,,0.00,928,Wunderground v.1.15,2013-10-09 01:50:00,
2013-10-09 12:51:00,81.6,42.4,29.03,NW,315,6.0,-999.0,25,0.00,,,0.00,892,Wunderground v.1.15,2013-10-09 01:51:00,
2013-10-09 12:55:00,78.3,47.6,29.06,NW,308,6.0,14.0,34,0.00,,,0.00,935,Wunderground v.1.15,2013-10-09 01:55:00,
2013-10-09 12:56:00,81.6,42.4,29.03,NW,315,6.0,-999.0,25,0.00,,,0.00,892,Wunderground v.1.15,2013-10-09 01:56:00,
2013-10-09 13:00:00,78.5,46.2,29.06,WNW,293,7.0,7.0,32,0.00,,,0.00,926,Wunderground v.1.15,2013-10-09 02:00:00,
2013-10-09 13:01:00,81.6,42.4,29.03,NW,315,6.0,-999.0,25,0.00,,,0.00,892,Wunderground v.1.15,2013-10-09 02:01:00,
2013-10-09 13:06:00,81.6,42.4,29.03,NW,315,6.0,-999.0,25,0.00,,,0.00,892,Wunderground v.1.15,2013-10-09 02:06:00,
2013-10-09 13:11:00,81.6,42.4,29.03,NW,315,6.0,-999.0,25,0.00,,,0.00,892,Wunderground v.1.15,2013-10-09 02:11:00,
2013-10-09 13:16:00,82.5,39.8,29.01,NW,315,5.0,-999.0,22,0.00,,,0.00,851,Wunderground v.1.15,2013-10-09 02:16:00,
2013-10-09 13:20:00,80.1,46.7,29.05,NW,321,6.0,6.0,31,0.00,,,0.00,918,Wunderground v.1.15,2013-10-09 02:20:00,
2013-10-09 13:21:00,82.5,39.8,29.01,NW,315,5.0,-999.0,22,0.00,,,0.00,851,Wunderground v.1.15,2013-10-09 02:21:00,
2013-10-09 13:25:00,80.8,45.6,29.05,NNW,338,5.0,17.0,29,0.00,,,0.00,911,Wunderground v.1.15,2013-10-09 02:25:00,
2013-10-09 13:26:00,82.5,39.8,29.01,NW,315,5.0,-999.0,22,0.00,,,0.00,851,Wunderground v.1.15,2013-10-09 02:26:00,
2013-10-09 13:30:00,81.2,45.9,29.05,NW,305,6.0,6.0,29,0.00,,,0.00,911,Wunderground v.1.15,2013-10-09 02:30:00,
2013-10-09 13:31:00,82.5,39.8,29.01,NW,315,5.0,-999.0,22,0.00,,,0.00,851,Wunderground v.1.15,2013-10-09 02:31:00,
2013-10-09 13:36:00,82.5,39.8,29.01,NW,315,5.0,-999.0,22,0.00,,,0.00,851,Wunderground v.1.15,2013-10-09 02:36:00,
2013-10-09 13:40:00,81.5,44.3,29.04,NNW,336,7.0,7.0,27,0.00,,,0.00,898,Wunderground v.1.15,2013-10-09 02:40:00,
2013-10-09 13:41:00,82.5,39.8,29.01,NW,315,5.0,-999.0,22,0.00,,,0.00,851,Wunderground v.1.15,2013-10-09 02:41:00,
2013-10-09 13:45:00,81.8,44.5,29.04,West,260,6.0,16.0,27,0.00,,,0.00,895,Wunderground v.1.15,2013-10-09 02:45:00,
2013-10-09 13:46:00,84.6,39.1,28.99,WNW,293,5.0,-999.0,20,0.00,,,0.00,795,Wunderground v.1.15,2013-10-09 02:46:00,
2013-10-09 13:51:00,84.6,39.1,28.99,WNW,293,5.0,-999.0,20,0.00,,,0.00,795,Wunderground v.1.15,2013-10-09 02:51:00,
2013-10-09 13:55:00,81.6,42.4,29.04,NW,323,6.0,16.0,25,0.00,,,0.00,884,Wunderground v.1.15,2013-10-09 02:55:00,
2013-10-09 13:56:00,84.6,39.1,28.99,WNW,293,5.0,-999.0,20,0.00,,,0.00,795,Wunderground v.1.15,2013-10-09 02:56:00,
2013-10-09 14:00:00,81.7,42.4,29.03,WSW,253,6.0,6.0,25,0.00,,,0.00,877,Wunderground v.1.15,2013-10-09 03:00:00,
2013-10-09 14:01:00,84.6,39.1,28.99,WNW,293,5.0,-999.0,20,0.00,,,0.00,795,Wunderground v.1.15,2013-10-09 03:01:00,
2013-10-09 14:05:00,82.2,43.9,29.03,WNW,285,5.0,10.0,26,0.00,,,0.00,874,Wunderground v.1.15,2013-10-09 03:05:00,
2013-10-09 14:06:00,84.6,39.1,28.99,WNW,293,5.0,-999.0,20,0.00,,,0.00,795,Wunderground v.1.15,2013-10-09 03:06:00,
2013-10-09 14:10:00,81.8,40.4,29.03,NW,305,6.0,6.0,23,0.00,,,0.00,865,Wunderground v.1.15,2013-10-09 03:10:00,
2013-10-09 14:11:00,84.6,39.1,28.99,WNW,293,5.0,-999.0,20,0.00,,,0.00,795,Wunderground v.1.15,2013-10-09 03:11:00,
2013-10-09 14:16:00,85.7,38.7,28.98,NW,315,4.0,-999.0,19,0.00,,,0.00,722,Wunderground v.1.15,2013-10-09 03:16:00,
2013-10-09 14:20:00,82.8,41.2,29.02,West,277,5.0,12.0,23,0.00,,,0.00,847,Wunderground v.1.15,2013-10-09 03:20:00,
2013-10-09 14:21:00,85.7,38.7,28.98,NW,315,4.0,-999.0,19,0.00,,,0.00,722,Wunderground v.1.15,2013-10-09 03:21:00,
2013-10-09 14:25:00,82.8,41.2,29.01,NNW,328,6.0,12.0,23,0.00,,,0.00,838,Wunderground v.1.15,2013-10-09 03:25:00,
2013-10-09 14:26:00,85.7,38.7,28.98,NW,315,4.0,-999.0,19,0.00,,,0.00,722,Wunderground v.1.15,2013-10-09 03:26:00,
2013-10-09 14:30:00,83.5,41.8,29.01,NNE,23,5.0,5.0,23,0.00,,,0.00,828,Wunderground v.1.15,2013-10-09 03:30:00,
2013-10-09 14:31:00,85.7,38.7,28.98,NW,315,4.0,-999.0,19,0.00,,,0.00,722,Wunderground v.1.15,2013-10-09 03:31:00,
2013-10-09 14:36:00,85.7,38.7,28.98,NW,315,4.0,-999.0,19,0.00,,,0.00,722,Wunderground v.1.15,2013-10-09 03:36:00,
2013-10-09 14:40:00,84.7,41.6,29.00,NW,313,4.0,14.0,22,0.00,,,0.00,809,Wunderground v.1.15,2013-10-09 03:40:00,
2013-10-09 14:41:00,85.7,38.7,28.98,NW,315,4.0,-999.0,19,0.00,,,0.00,722,Wunderground v.1.15,2013-10-09 03:41:00,
2013-10-09 14:45:00,85.1,40.8,29.00,West,279,4.0,14.0,21,0.00,,,0.00,800,Wunderground v.1.15,2013-10-09 03:45:00,
2013-10-09 14:46:00,86.6,39.4,28.97,NW,315,4.0,-999.0,19,0.00,,,0.00,635,Wunderground v.1.15,2013-10-09 03:46:00,
2013-10-09 14:51:00,86.6,39.4,28.97,NW,315,4.0,-999.0,19,0.00,,,0.00,635,Wunderground v.1.15,2013-10-09 03:51:00,
2013-10-09 14:55:00,84.5,41.5,29.00,WNW,284,6.0,14.0,22,0.00,,,0.00,782,Wunderground v.1.15,2013-10-09 03:55:00,
2013-10-09 14:56:00,86.6,39.4,28.97,NW,315,4.0,-999.0,19,0.00,,,0.00,635,Wunderground v.1.15,2013-10-09 03:56:00,
2013-10-09 15:00:00,84.6,40.4,29.00,NW,315,6.0,6.0,21,0.00,,,0.00,768,Wunderground v.1.15,2013-10-09 04:00:00,
2013-10-09 15:01:00,86.6,39.4,28.97,NW,315,4.0,-999.0,19,0.00,,,0.00,635,Wunderground v.1.15,2013-10-09 04:01:00,
2013-10-09 15:05:00,84.8,39.3,28.99,NW,316,6.0,12.0,20,0.00,,,0.00,754,Wunderground v.1.15,2013-10-09 04:05:00,
2013-10-09 15:06:00,86.6,39.4,28.97,NW,315,4.0,-999.0,19,0.00,,,0.00,635,Wunderground v.1.15,2013-10-09 04:06:00,
2013-10-09 15:10:00,85.1,39.5,28.99,WNW,284,6.0,12.0,20,0.00,,,0.00,742,Wunderground v.1.15,2013-10-09 04:10:00,
2013-10-09 15:11:00,86.6,39.4,28.97,NW,315,4.0,-999.0,19,0.00,,,0.00,635,Wunderground v.1.15,2013-10-09 04:11:00,
2013-10-09 15:16:00,87.3,40.0,28.96,NW,315,4.0,-999.0,19,0.00,,,0.00,542,Wunderground v.1.15,2013-10-09 04:16:00,
2013-10-09 15:20:00,85.9,40.2,28.98,WNW,287,4.0,4.0,20,0.00,,,0.00,714,Wunderground v.1.15,2013-10-09 04:20:00,
2013-10-09 15:21:00,87.3,40.0,28.96,NW,315,4.0,-999.0,19,0.00,,,0.00,542,Wunderground v.1.15,2013-10-09 04:21:00,
2013-10-09 15:25:00,86.3,40.5,28.98,NNW,338,4.0,12.0,20,0.00,,,0.00,700,Wunderground v.1.15,2013-10-09 04:25:00,
2013-10-09 15:26:00,87.3,40.0,28.96,NW,315,4.0,-999.0,19,0.00,,,0.00,542,Wunderground v.1.15,2013-10-09 04:26:00,
2013-10-09 15:30:00,86.7,39.5,28.98,NW,318,4.0,12.0,19,0.00,,,0.00,684,Wunderground v.1.15,2013-10-09 04:30:00,
2013-10-09 15:31:00,87.3,40.0,28.96,NW,315,4.0,-999.0,19,0.00,,,0.00,542,Wunderground v.1.15,2013-10-09 04:31:00,
2013-10-09 15:36:00,87.3,40.0,28.96,NW,315,4.0,-999.0,19,0.00,,,0.00,542,Wunderground v.1.15,2013-10-09 04:36:00,
2013-10-09 15:40:00,86.3,40.5,28.97,NW,320,4.0,4.0,20,0.00,,,0.00,654,Wunderground v.1.15,2013-10-09 04:40:00,
2013-10-09 15:41:00,87.3,40.0,28.96,NW,315,4.0,-999.0,19,0.00,,,0.00,542,Wunderground v.1.15,2013-10-09 04:41:00,
2013-10-09 15:46:00,86.8,39.6,28.94,NW,315,4.0,-999.0,19,0.00,,,0.00,439,Wunderground v.1.15,2013-10-09 04:46:00,
2013-10-09 15:50:00,86.5,40.7,28.97,NW,319,4.0,12.0,20,0.00,,,0.00,628,Wunderground v.1.15,2013-10-09 04:50:00,
2013-10-09 15:51:00,86.8,39.6,28.94,NW,315,4.0,-999.0,19,0.00,,,0.00,439,Wunderground v.1.15,2013-10-09 04:51:00,
2013-10-09 15:55:00,86.7,42.1,28.97,SW,232,4.0,12.0,21,0.00,,,0.00,612,Wunderground v.1.15,2013-10-09 04:55:00,
2013-10-09 15:56:00,86.8,39.6,28.94,NW,315,4.0,-999.0,19,0.00,,,0.00,439,Wunderground v.1.15,2013-10-09 04:56:00,
2013-10-09 16:00:00,87.2,39.9,28.96,NW,323,4.0,4.0,19,0.00,,,0.00,598,Wunderground v.1.15,2013-10-09 05:00:00,
2013-10-09 16:01:00,86.8,39.6,28.94,NW,315,4.0,-999.0,19,0.00,,,0.00,439,Wunderground v.1.15,2013-10-09 05:01:00,
2013-10-09 16:06:00,86.8,39.6,28.94,NW,315,4.0,-999.0,19,0.00,,,0.00,439,Wunderground v.1.15,2013-10-09 05:06:00,
2013-10-09 16:10:00,87.4,38.7,28.96,NNW,335,5.0,11.0,18,0.00,,,0.00,564,Wunderground v.1.15,2013-10-09 05:10:00,
2013-10-09 16:11:00,86.8,39.6,28.94,NW,315,4.0,-999.0,19,0.00,,,0.00,439,Wunderground v.1.15,2013-10-09 05:11:00,
2013-10-09 16:15:00,87.4,40.1,28.96,NW,308,4.0,11.0,19,0.00,,,0.00,547,Wunderground v.1.15,2013-10-09 05:15:00,
2013-10-09 16:16:00,87.0,38.4,28.96,WNW,293,4.0,-999.0,18,0.00,,,0.00,332,Wunderground v.1.15,2013-10-09 05:16:00,
2013-10-09 16:20:00,87.2,39.9,28.96,NNW,332,4.0,4.0,19,0.00,,,0.00,533,Wunderground v.1.15,2013-10-09 05:20:00,
2013-10-09 16:21:00,87.0,38.4,28.96,WNW,293,4.0,-999.0,18,0.00,,,0.00,332,Wunderground v.1.15,2013-10-09 05:21:00,
2013-10-09 16:25:00,87.5,38.8,28.96,WNW,290,4.0,5.0,18,0.00,,,0.00,513,Wunderground v.1.15,2013-10-09 05:25:00,
2013-10-09 16:26:00,87.0,38.4,28.96,WNW,293,4.0,-999.0,18,0.00,,,0.00,332,Wunderground v.1.15,2013-10-09 05:26:00,
2013-10-09 16:30:00,86.7,38.1,28.96,WNW,300,5.0,5.0,18,0.00,,,0.00,499,Wunderground v.1.15,2013-10-09 05:30:00,
2013-10-09 16:31:00,87.0,38.4,28.96,WNW,293,4.0,-999.0,18,0.00,,,0.00,332,Wunderground v.1.15,2013-10-09 05:31:00,
2013-10-09 16:36:00,87.0,38.4,28.96,WNW,293,4.0,-999.0,18,0.00,,,0.00,332,Wunderground v.1.15,2013-10-09 05:36:00,
2013-10-09 16:40:00,86.5,39.3,28.95,West,273,4.0,13.0,19,0.00,,,0.00,464,Wunderground v.1.15,2013-10-09 05:40:00,
2013-10-09 16:41:00,87.0,38.4,28.96,WNW,293,4.0,-999.0,18,0.00,,,0.00,332,Wunderground v.1.15,2013-10-09 05:41:00,
2013-10-09 16:46:00,86.1,37.6,28.96,NW,315,5.0,-999.0,18,0.00,,,0.00,220,Wunderground v.1.15,2013-10-09 05:46:00,
2013-10-09 16:50:00,87.3,40.0,28.94,NNW,338,4.0,4.0,19,0.00,,,0.00,429,Wunderground v.1.15,2013-10-09 05:50:00,
2013-10-09 16:51:00,86.1,37.6,28.96,NW,315,5.0,-999.0,18,0.00,,,0.00,220,Wunderground v.1.15,2013-10-09 05:51:00,
2013-10-09 16:55:00,87.2,38.5,28.94,West,277,5.0,7.0,18,0.00,,,0.00,410,Wunderground v.1.15,2013-10-09 05:55:00,
2013-10-09 16:56:00,86.1,37.6,28.96,NW,315,5.0,-999.0,18,0.00,,,0.00,220,Wunderground v.1.15,2013-10-09 05:56:00,
2013-10-09 17:00:00,87.0,38.4,28.94,WNW,294,4.0,13.0,18,0.00,,,0.00,392,Wunderground v.1.15,2013-10-09 06:00:00,
2013-10-09 17:01:00,86.1,37.6,28.96,NW,315,5.0,-999.0,18,0.00,,,0.00,220,Wunderground v.1.15,2013-10-09 06:01:00,
2013-10-09 17:05:00,87.0,39.7,28.94,NW,320,4.0,14.0,19,0.00,,,0.00,376,Wunderground v.1.15,2013-10-09 06:05:00,
2013-10-09 17:06:00,86.1,37.6,28.96,NW,315,5.0,-999.0,18,0.00,,,0.00,220,Wunderground v.1.15,2013-10-09 06:06:00,
2013-10-09 17:11:00,86.1,37.6,28.96,NW,315,5.0,-999.0,18,0.00,,,0.00,220,Wunderground v.1.15,2013-10-09 06:11:00,
2013-10-09 17:15:00,87.1,39.8,28.95,West,260,4.0,14.0,19,0.00,,,0.00,339,Wunderground v.1.15,2013-10-09 06:15:00,
2013-10-09 17:16:00,85.1,39.5,28.96,NW,315,2.0,-999.0,20,0.00,,,0.00,108,Wunderground v.1.15,2013-10-09 06:16:00,
2013-10-09 17:20:00,87.1,38.4,28.95,NW,309,4.0,14.0,18,0.00,,,0.00,320,Wunderground v.1.15,2013-10-09 06:20:00,
2013-10-09 17:21:00,85.1,39.5,28.96,NW,315,2.0,-999.0,20,0.00,,,0.00,108,Wunderground v.1.15,2013-10-09 06:21:00,
2013-10-09 17:25:00,86.8,38.2,28.96,WNW,290,5.0,14.0,18,0.00,,,0.00,301,Wunderground v.1.15,2013-10-09 06:25:00,
2013-10-09 17:26:00,85.1,39.5,28.96,NW,315,2.0,-999.0,20,0.00,,,0.00,108,Wunderground v.1.15,2013-10-09 06:26:00,
2013-10-09 17:30:00,86.7,38.1,28.96,NW,311,4.0,4.0,18,0.00,,,0.00,281,Wunderground v.1.15,2013-10-09 06:30:00,
2013-10-09 17:31:00,85.1,39.5,28.96,NW,315,2.0,-999.0,20,0.00,,,0.00,108,Wunderground v.1.15,2013-10-09 06:31:00,
2013-10-09 17:36:00,85.1,39.5,28.96,NW,315,2.0,-999.0,20,0.00,,,0.00,108,Wunderground v.1.15,2013-10-09 06:36:00,
2013-10-09 17:40:00,86.5,38.0,28.96,WNW,296,5.0,11.0,18,0.00,,,0.00,246,Wunderground v.1.15,2013-10-09 06:40:00,
2013-10-09 17:41:00,85.1,39.5,28.96,NW,315,2.0,-999.0,20,0.00,,,0.00,108,Wunderground v.1.15,2013-10-09 06:41:00,
2013-10-09 17:45:00,86.3,37.8,28.96,WNW,294,5.0,11.0,18,0.00,,,0.00,229,Wunderground v.1.15,2013-10-09 06:45:00,
2013-10-09 17:46:00,83.1,41.5,28.96,North,0,2.0,-999.0,23,0.00,,,0.00,20,Wunderground v.1.15,2013-10-09 06:46:00,
2013-10-09 17:51:00,83.1,41.5,28.96,North,0,2.0,-999.0,23,0.00,,,0.00,20,Wunderground v.1.15,2013-10-09 06:51:00,
2013-10-09 17:55:00,85.7,37.3,28.96,NNW,327,5.0,11.0,18,0.00,,,0.00,190,Wunderground v.1.15,2013-10-09 06:55:00,
2013-10-09 17:56:00,83.1,41.5,28.96,North,0,2.0,-999.0,23,0.00,,,0.00,20,Wunderground v.1.15,2013-10-09 06:56:00,
2013-10-09 18:00:00,85.5,37.1,28.96,NW,318,5.0,5.0,18,0.00,,,0.00,172,Wunderground v.1.15,2013-10-09 07:00:00,
2013-10-09 18:01:00,83.1,41.5,28.96,North,0,2.0,-999.0,23,0.00,,,0.00,20,Wunderground v.1.15,2013-10-09 07:01:00,
2013-10-09 18:05:00,85.3,38.4,28.96,WNW,298,5.0,13.0,19,0.00,,,0.00,155,Wunderground v.1.15,2013-10-09 07:05:00,
2013-10-09 18:06:00,83.1,41.5,28.96,North,0,2.0,-999.0,23,0.00,,,0.00,20,Wunderground v.1.15,2013-10-09 07:06:00,
2013-10-09 18:10:00,85.3,38.4,28.96,WNW,284,4.0,13.0,19,0.00,,,0.00,137,Wunderground v.1.15,2013-10-09 07:10:00,
2013-10-09 18:11:00,83.1,41.5,28.96,North,0,2.0,-999.0,23,0.00,,,0.00,20,Wunderground v.1.15,2013-10-09 07:11:00,
2013-10-09 18:16:00,79.4,39.4,28.97,North,0,2.0,-999.0,24,0.00,,,0.00,0,Wunderground v.1.15,2013-10-09 07:16:00,
2013-10-09 18:20:00,84.9,38.0,28.96,North,360,3.0,3.0,19,0.00,,,0.00,97,Wunderground v.1.15,2013-10-09 07:20:00,
2013-10-09 18:21:00,79.4,39.4,28.97,North,0,2.0,-999.0,24,0.00,,,0.00,0,Wunderground v.1.15,2013-10-09 07:21:00,
2013-10-09 18:25:00,85.1,39.5,28.96,NW,306,2.0,13.0,20,0.00,,,0.00,77,Wunderground v.1.15,2013-10-09 07:25:00,
2013-10-09 18:26:00,79.4,39.4,28.97,North,0,2.0,-999.0,24,0.00,,,0.00,0,Wunderground v.1.15,2013-10-09 07:26:00,
2013-10-09 18:30:00,84.9,39.3,28.96,NW,312,1.0,1.0,20,0.00,,,0.00,60,Wunderground v.1.15,2013-10-09 07:30:00,
2013-10-09 18:31:00,79.4,39.4,28.97,North,0,2.0,-999.0,24,0.00,,,0.00,0,Wunderground v.1.15,2013-10-09 07:31:00,
2013-10-09 18:36:00,79.4,39.4,28.97,North,0,2.0,-999.0,24,0.00,,,0.00,0,Wunderground v.1.15,2013-10-09 07:36:00,
2013-10-09 18:40:00,84.4,38.9,28.96,WNW,303,1.0,11.0,20,0.00,,,0.00,28,Wunderground v.1.15,2013-10-09 07:40:00,
2013-10-09 18:41:00,79.4,39.4,28.97,North,0,2.0,-999.0,24,0.00,,,0.00,0,Wunderground v.1.15,2013-10-09 07:41:00,
2013-10-09 18:46:00,77.8,40.2,28.97,North,0,2.0,-999.0,26,0.00,,,0.00,0,Wunderground v.1.15,2013-10-09 07:46:00,
2013-10-09 18:50:00,82.6,39.9,28.96,North,5,3.0,3.0,22,0.00,,,0.00,12,Wunderground v.1.15,2013-10-09 07:50:00,
2013-10-09 18:51:00,77.8,40.2,28.97,North,0,2.0,-999.0,26,0.00,,,0.00,0,Wunderground v.1.15,2013-10-09 07:51:00,
2013-10-09 18:55:00,81.8,39.2,28.96,North,9,3.0,11.0,22,0.00,,,0.00,9,Wunderground v.1.15,2013-10-09 07:55:00,
2013-10-09 18:56:00,77.8,40.2,28.97,North,0,2.0,-999.0,26,0.00,,,0.00,0,Wunderground v.1.15,2013-10-09 07:56:00,
2013-10-09 19:00:00,81.1,38.6,28.96,NNE,13,2.0,11.0,22,0.00,,,0.00,5,Wunderground v.1.15,2013-10-09 08:00:00,
2013-10-09 19:01:00,77.8,40.2,28.97,North,0,2.0,-999.0,26,0.00,,,0.00,0,Wunderground v.1.15,2013-10-09 08:01:00,
2013-10-09 19:05:00,80.4,39.2,28.96,North,355,2.0,11.0,23,0.00,,,0.00,0,Wunderground v.1.15,2013-10-09 08:05:00,
2013-10-09 19:06:00,77.8,40.2,28.97,North,0,2.0,-999.0,26,0.00,,,0.00,0,Wunderground v.1.15,2013-10-09 08:06:00,
2013-10-09 19:11:00,77.8,40.2,28.97,North,0,2.0,-999.0,26,0.00,,,0.00,0,Wunderground v.1.15,2013-10-09 08:11:00,
2013-10-09 19:15:00,79.4,38.4,28.97,NNW,334,2.0,8.0,23,0.00,,,0.00,0,Wunderground v.1.15,2013-10-09 08:15:00,
2013-10-09 19:16:00,76.2,40.7,28.98,North,0,1.0,-999.0,28,0.00,,,0.00,0,Wunderground v.1.15,2013-10-09 08:16:00,
2013-10-09 19:20:00,79.1,39.2,28.97,NNW,338,3.0,3.0,24,0.00,,,0.00,0,Wunderground v.1.15,2013-10-09 08:20:00,
2013-10-09 19:21:00,76.2,40.7,28.98,North,0,1.0,-999.0,28,0.00,,,0.00,0,Wunderground v.1.15,2013-10-09 08:21:00,
2013-10-09 19:25:00,78.8,38.9,28.97,North,5,2.0,8.0,24,0.00,,,0.00,0,Wunderground v.1.15,2013-10-09 08:25:00,
2013-10-09 19:26:00,76.2,40.7,28.98,North,0,1.0,-999.0,28,0.00,,,0.00,0,Wunderground v.1.15,2013-10-09 08:26:00,
2013-10-09 19:30:00,78.6,38.8,28.97,NE,42,2.0,8.0,24,0.00,,,0.00,0,Wunderground v.1.15,2013-10-09 08:30:00,
2013-10-09 19:31:00,76.2,40.7,28.98,North,0,1.0,-999.0,28,0.00,,,0.00,0,Wunderground v.1.15,2013-10-09 08:31:00,
2013-10-09 19:36:00,76.2,40.7,28.98,North,0,1.0,-999.0,28,0.00,,,0.00,0,Wunderground v.1.15,2013-10-09 08:36:00,
2013-10-09 19:40:00,78.1,38.4,28.97,NNE,22,3.0,3.0,24,0.00,,,0.00,0,Wunderground v.1.15,2013-10-09 08:40:00,
2013-10-09 19:41:00,76.2,40.7,28.98,North,0,1.0,-999.0,28,0.00,,,0.00,0,Wunderground v.1.15,2013-10-09 08:41:00,
2013-10-09 19:45:00,77.9,38.2,28.97,NNE,23,3.0,8.0,24,0.00,,,0.00,0,Wunderground v.1.15,2013-10-09 08:45:00,
2013-10-09 19:46:00,75.1,40.7,28.99,North,0,1.0,-999.0,29,0.00,,,0.00,0,Wunderground v.1.15,2013-10-09 08:46:00,
2013-10-09 19:51:00,75.1,40.7,28.99,North,0,1.0,-999.0,29,0.00,,,0.00,0,Wunderground v.1.15,2013-10-09 08:51:00,
2013-10-09 19:55:00,77.5,38.9,28.97,NNW,346,2.0,8.0,25,0.00,,,0.00,0,Wunderground v.1.15,2013-10-09 08:55:00,
2013-10-09 19:56:00,75.1,40.7,28.99,North,0,1.0,-999.0,29,0.00,,,0.00,0,Wunderground v.1.15,2013-10-09 08:56:00,
2013-10-09 20:00:00,77.2,39.6,28.97,North,360,2.0,2.0,26,0.00,,,0.00,0,Wunderground v.1.15,2013-10-09 09:00:00,
2013-10-09 20:01:00,75.1,40.7,28.99,North,0,1.0,-999.0,29,0.00,,,0.00,0,Wunderground v.1.15,2013-10-09 09:01:00,
2013-10-09 20:05:00,76.9,39.4,28.97,North,360,2.0,6.0,26,0.00,,,0.00,0,Wunderground v.1.15,2013-10-09 09:05:00,
2013-10-09 20:06:00,75.1,40.7,28.99,North,0,1.0,-999.0,29,0.00,,,0.00,0,Wunderground v.1.15,2013-10-09 09:06:00,
2013-10-09 20:10:00,76.6,39.1,28.97,North,355,1.0,6.0,26,0.00,,,0.00,0,Wunderground v.1.15,2013-10-09 09:10:00,
2013-10-09 20:11:00,75.1,40.7,28.99,North,0,1.0,-999.0,29,0.00,,,0.00,0,Wunderground v.1.15,2013-10-09 09:11:00,
2013-10-09 20:16:00,74.3,40.0,28.99,North,0,2.0,-999.0,29,0.00,,,0.00,0,Wunderground v.1.15,2013-10-09 09:16:00,
2013-10-09 20:20:00,76.1,39.7,28.98,NNE,18,1.0,1.0,27,0.00,,,0.00,0,Wunderground v.1.15,2013-10-09 09:20:00,
2013-10-09 20:21:00,74.3,40.0,28.99,North,0,2.0,-999.0,29,0.00,,,0.00,0,Wunderground v.1.15,2013-10-09 09:21:00,
2013-10-09 20:25:00,75.8,39.4,28.98,North,10,1.0,6.0,27,0.00,,,0.00,0,Wunderground v.1.15,2013-10-09 09:25:00,
2013-10-09 20:26:00,74.3,40.0,28.99,North,0,2.0,-999.0,29,0.00,,,0.00,0,Wunderground v.1.15,2013-10-09 09:26:00,
2013-10-09 20:30:00,75.5,40.1,28.98,North,9,1.0,6.0,28,0.00,,,0.00,0,Wunderground v.1.15,2013-10-09 09:30:00,
2013-10-09 20:31:00,74.3,40.0,28.99,North,0,2.0,-999.0,29,0.00,,,0.00,0,Wunderground v.1.15,2013-10-09 09:31:00,
2013-10-09 20:36:00,74.3,40.0,28.99,North,0,2.0,-999.0,29,0.00,,,0.00,0,Wunderground v.1.15,2013-10-09 09:36:00,
2013-10-09 20:40:00,75.2,39.8,28.98,NNW,348,2.0,2.0,28,0.00,,,0.00,0,Wunderground v.1.15,2013-10-09 09:40:00,
2013-10-09 20:41:00,74.3,40.0,28.99,North,0,2.0,-999.0,29,0.00,,,0.00,0,Wunderground v.1.15,2013-10-09 09:41:00,
2013-10-09 20:45:00,75.1,39.8,28.99,North,360,1.0,4.0,28,0.00,,,0.00,0,Wunderground v.1.15,2013-10-09 09:45:00,
2013-10-09 20:46:00,74.0,40.6,29.00,North,0,2.0,-999.0,30,0.00,,,0.00,0,Wunderground v.1.15,2013-10-09 09:46:00,
2013-10-09 20:50:00,75.0,39.7,28.99,NNW,348,1.0,1.0,28,0.00,,,0.00,0,Wunderground v.1.15,2013-10-09 09:50:00,
2013-10-09 20:51:00,74.0,40.6,29.00,North,0,2.0,-999.0,30,0.00,,,0.00,0,Wunderground v.1.15,2013-10-09 09:51:00,
2013-10-09 20:56:00,74.0,40.6,29.00,North,0,2.0,-999.0,30,0.00,,,0.00,0,Wunderground v.1.15,2013-10-09 09:56:00,
2013-10-09 21:00:00,74.7,40.3,28.99,North,355,1.0,4.0,29,0.00,,,0.00,0,Wunderground v.1.15,2013-10-09 10:00:00,
2013-10-09 21:01:00,74.0,40.6,29.00,North,0,2.0,-999.0,30,0.00,,,0.00,0,Wunderground v.1.15,2013-10-09 10:01:00,
2013-10-09 21:05:00,74.5,40.1,28.99,NNE,15,2.0,5.0,29,0.00,,,0.00,0,Wunderground v.1.15,2013-10-09 10:05:00,
2013-10-09 21:06:00,74.0,40.6,29.00,North,0,2.0,-999.0,30,0.00,,,0.00,0,Wunderground v.1.15,2013-10-09 10:06:00,
2013-10-09 21:10:00,74.3,40.0,28.99,NNE,15,2.0,5.0,29,0.00,,,0.00,0,Wunderground v.1.15,2013-10-09 10:10:00,
2013-10-09 21:11:00,74.0,40.6,29.00,North,0,2.0,-999.0,30,0.00,,,0.00,0,Wunderground v.1.15,2013-10-09 10:11:00,
2013-10-09 21:16:00,73.0,41.4,29.00,NNE,23,1.0,-999.0,32,0.00,,,0.00,0,Wunderground v.1.15,2013-10-09 10:16:00,
2013-10-09 21:20:00,74.2,39.9,28.99,North,355,2.0,5.0,29,0.00,,,0.00,0,Wunderground v.1.15,2013-10-09 10:20:00,
2013-10-09 21:21:00,73.0,41.4,29.00,NNE,23,1.0,-999.0,32,0.00,,,0.00,0,Wunderground v.1.15,2013-10-09 10:21:00,
2013-10-09 21:25:00,74.3,40.0,28.99,NW,322,2.0,5.0,29,0.00,,,0.00,0,Wunderground v.1.15,2013-10-09 10:25:00,
2013-10-09 21:26:00,73.0,41.4,29.00,NNE,23,1.0,-999.0,32,0.00,,,0.00,0,Wunderground v.1.15,2013-10-09 10:26:00,
2013-10-09 21:30:00,74.3,40.0,28.99,NW,314,2.0,2.0,29,0.00,,,0.00,0,Wunderground v.1.15,2013-10-09 10:30:00,
2013-10-09 21:31:00,73.0,41.4,29.00,NNE,23,1.0,-999.0,32,0.00,,,0.00,0,Wunderground v.1.15,2013-10-09 10:31:00,
2013-10-09 21:36:00,73.0,41.4,29.00,NNE,23,1.0,-999.0,32,0.00,,,0.00,0,Wunderground v.1.15,2013-10-09 10:36:00,
2013-10-09 21:40:00,74.1,39.8,29.00,NNW,342,2.0,6.0,29,0.00,,,0.00,0,Wunderground v.1.15,2013-10-09 10:40:00,
2013-10-09 21:41:00,73.0,41.4,29.00,NNE,23,1.0,-999.0,32,0.00,,,0.00,0,Wunderground v.1.15,2013-10-09 10:41:00,
2013-10-09 21:45:00,74.0,39.7,29.00,NNE,22,2.0,6.0,29,0.00,,,0.00,0,Wunderground v.1.15,2013-10-09 10:45:00,
2013-10-09 21:46:00,72.4,40.9,29.00,North,0,1.0,-999.0,32,0.00,,,0.00,0,Wunderground v.1.15,2013-10-09 10:46:00,
2013-10-09 21:50:00,73.9,39.6,29.00,NW,325,2.0,6.0,29,0.00,,,0.00,0,Wunderground v.1.15,2013-10-09 10:50:00,
2013-10-09 21:51:00,72.4,40.9,29.00,North,0,1.0,-999.0,32,0.00,,,0.00,0,Wunderground v.1.15,2013-10-09 10:51:00,
2013-10-09 21:56:00,72.4,40.9,29.00,North,0,1.0,-999.0,32,0.00,,,0.00,0,Wunderground v.1.15,2013-10-09 10:56:00,
2013-10-09 22:00:00,73.6,40.2,29.00,NW,323,3.0,3.0,30,0.00,,,0.00,0,Wunderground v.1.15,2013-10-09 11:00:00,
2013-10-09 22:01:00,72.4,40.9,29.00,North,0,1.0,-999.0,32,0.00,,,0.00,0,Wunderground v.1.15,2013-10-09 11:01:00,
2013-10-09 22:05:00,73.4,40.1,29.00,NE,41,2.0,8.0,30,0.00,,,0.00,0,Wunderground v.1.15,2013-10-09 11:05:00,
2013-10-09 22:06:00,72.4,40.9,29.00,North,0,1.0,-999.0,32,0.00,,,0.00,0,Wunderground v.1.15,2013-10-09 11:06:00,
2013-10-09 22:10:00,73.2,39.9,29.00,North,360,2.0,2.0,30,0.00,,,0.00,0,Wunderground v.1.15,2013-10-09 11:10:00,
2013-10-09 22:11:00,72.4,40.9,29.00,North,0,1.0,-999.0,32,0.00,,,0.00,0,Wunderground v.1.15,2013-10-09 11:11:00,
2013-10-09 22:15:00,73.0,40.6,29.00,NNE,28,2.0,4.0,31,0.00,,,0.00,0,Wunderground v.1.15,2013-10-09 11:15:00,
2013-10-09 22:16:00,72.0,42.1,29.00,NNE,23,2.0,-999.0,34,0.00,,,0.00,0,Wunderground v.1.15,2013-10-09 11:16:00,
2013-10-09 22:21:00,72.0,42.1,29.00,NNE,23,2.0,-999.0,34,0.00,,,0.00,0,Wunderground v.1.15,2013-10-09 11:21:00,
2013-10-09 22:25:00,72.8,40.4,29.00,NNE,17,1.0,8.0,31,0.00,,,0.00,0,Wunderground v.1.15,2013-10-09 11:25:00,
2013-10-09 22:26:00,72.0,42.1,29.00,NNE,23,2.0,-999.0,34,0.00,,,0.00,0,Wunderground v.1.15,2013-10-09 11:26:00,
2013-10-09 22:30:00,72.5,41.0,29.00,NNE,17,0.0,8.0,32,0.00,,,0.00,0,Wunderground v.1.15,2013-10-09 11:30:00,
2013-10-09 22:31:00,72.0,42.1,29.00,NNE,23,2.0,-999.0,34,0.00,,,0.00,0,Wunderground v.1.15,2013-10-09 11:31:00,
2013-10-09 22:36:00,72.0,42.1,29.00,NNE,23,2.0,-999.0,34,0.00,,,0.00,0,Wunderground v.1.15,2013-10-09 11:36:00,
2013-10-09 22:40:00,72.3,40.0,29.00,WNW,296,1.0,7.0,31,0.00,,,0.00,0,Wunderground v.1.15,2013-10-09 11:40:00,
2013-10-09 22:41:00,72.0,42.1,29.00,NNE,23,2.0,-999.0,34,0.00,,,0.00,0,Wunderground v.1.15,2013-10-09 11:41:00,
2013-10-09 22:45:00,72.5,40.1,29.00,NW,314,2.0,7.0,31,0.00,,,0.00,0,Wunderground v.1.15,2013-10-09 11:45:00,
2013-10-09 22:46:00,70.7,41.7,28.98,North,0,1.0,-999.0,35,0.00,,,0.00,0,Wunderground v.1.15,2013-10-09 11:46:00,
2013-10-09 22:50:00,72.3,40.8,29.00,NNW,346,2.0,2.0,32,0.00,,,0.00,0,Wunderground v.1.15,2013-10-09 11:50:00,
2013-10-09 22:51:00,70.7,41.7,28.98,North,0,1.0,-999.0,35,0.00,,,0.00,0,Wunderground v.1.15,2013-10-09 11:51:00,
2013-10-09 22:55:00,72.3,40.8,29.00,NNW,331,2.0,7.0,32,0.00,,,0.00,0,Wunderground v.1.15,2013-10-09 11:55:00,
2013-10-09 22:56:00,70.7,41.7,28.98,North,0,1.0,-999.0,35,0.00,,,0.00,0,Wunderground v.1.15,2013-10-09 11:56:00,
2013-10-09 23:01:00,70.7,41.7,28.98,North,0,1.0,-999.0,35,0.00,,,0.00,0,Wunderground v.1.15,2013-10-09 12:01:00,
2013-10-09 23:05:00,72.5,41.0,29.00,NNE,17,1.0,7.0,32,0.00,,,0.00,0,Wunderground v.1.15,2013-10-09 12:05:00,
2013-10-09 23:06:00,70.7,41.7,28.98,North,0,1.0,-999.0,35,0.00,,,0.00,0,Wunderground v.1.15,2013-10-09 12:06:00,
2013-10-09 23:10:00,72.0,40.5,29.00,NNE,24,2.0,2.0,32,0.00,,,0.00,0,Wunderground v.1.15,2013-10-09 12:10:00,
2013-10-09 23:11:00,70.7,41.7,28.98,North,0,1.0,-999.0,35,0.00,,,0.00,0,Wunderground v.1.15,2013-10-09 12:11:00,
2013-10-09 23:15:00,71.9,41.2,29.00,North,9,2.0,7.0,33,0.00,,,0.00,0,Wunderground v.1.15,2013-10-09 12:15:00,
2013-10-09 23:16:00,69.9,43.1,28.98,NNE,23,2.0,-999.0,38,0.00,,,0.00,0,Wunderground v.1.15,2013-10-09 12:16:00,
2013-10-09 23:20:00,71.9,41.2,29.00,NNE,28,2.0,7.0,33,0.00,,,0.00,0,Wunderground v.1.15,2013-10-09 12:20:00,
2013-10-09 23:21:00,69.9,43.1,28.98,NNE,23,2.0,-999.0,38,0.00,,,0.00,0,Wunderground v.1.15,2013-10-09 12:21:00,
2013-10-09 23:25:00,71.9,41.2,28.99,North,10,2.0,7.0,33,0.00,,,0.00,0,Wunderground v.1.15,2013-10-09 12:25:00,
2013-10-09 23:26:00,69.9,43.1,28.98,NNE,23,2.0,-999.0,38,0.00,,,0.00,0,Wunderground v.1.15,2013-10-09 12:26:00,
2013-10-09 23:31:00,69.9,43.1,28.98,NNE,23,2.0,-999.0,38,0.00,,,0.00,0,Wunderground v.1.15,2013-10-09 12:31:00,
2013-10-09 23:35:00,71.1,42.0,29.00,NNE,17,2.0,8.0,35,0.00,,,0.00,0,Wunderground v.1.15,2013-10-09 12:35:00,
2013-10-09 23:36:00,69.9,43.1,28.98,NNE,23,2.0,-999.0,38,0.00,,,0.00,0,Wunderground v.1.15,2013-10-09 12:36:00,
2013-10-09 23:40:00,70.7,41.7,29.00,North,355,2.0,2.0,35,0.00,,,0.00,0,Wunderground v.1.15,2013-10-09 12:40:00,
2013-10-09 23:41:00,69.9,43.1,28.98,NNE,23,2.0,-999.0,38,0.00,,,0.00,0,Wunderground v.1.15,2013-10-09 12:41:00,
2013-10-09 23:45:00,70.6,41.6,28.99,NNW,335,1.0,8.0,35,0.00,,,0.00,0,Wunderground v.1.15,2013-10-09 12:45:00,
2013-10-09 23:46:00,68.9,42.9,28.96,North,0,2.0,-999.0,39,0.00,,,0.00,0,Wunderground v.1.15,2013-10-09 12:46:00,
2013-10-09 23:50:00,70.5,41.5,28.99,North,360,1.0,1.0,35,0.00,,,0.00,0,Wunderground v.1.15,2013-10-09 12:50:00,
2013-10-09 23:51:00,68.9,42.9,28.96,North,0,2.0,-999.0,39,0.00,,,0.00,0,Wunderground v.1.15,2013-10-09 12:51:00,
2013-10-09 23:55:00,70.4,41.4,28.99,NNE,14,1.0,2.0,35,0.00,,,0.00,0,Wunderground v.1.15,2013-10-09 12:55:00,
2013-10-09 23:56:00,68.9,42.9,28.96,North,0,2.0,-999.0,39,0.00,,,0.00,0,Wunderground v.1.15,2013-10-09 12:56:00,